Location: Crescent
(42.8242°N, 73.7329°W)
Time: 18:22:37
(UTC+00:00)

Vanguard 1 - Pass Details

Date: 17 February 2026
Orbit: 653 x 3818 km, 34.2° (Epoch: 5 March)

Event Time Altitude Azimuth Distance (km) Brightness Sun altitude
Rises 19:21:57 0° 218° (SW) 4,333 14.7 27.5°
Reaches altitude 10° 19:24:36 10° 210° (SSW) 3,680 14.7 27.2°
Maximum altitude 19:33:43 39° 145° (SE) 3,010 13.0 26.2°
Drops below altitude 10° 19:49:04 10° 86° (E) 6,152 13.8 24.3°
Sets 19:55:07 0° 80° (E) 7,550 14.1 23.5°
